DLH3EV EGLL-EDDH

Flight info

Callsign DLH3EV
Flight time N/A
Altitude 35000
Route BPK Q295 SOMVA DCT MAVAS DCT PABCO M105 RIBSO RIBSO7A
Aircraft A320/M-DFGHILY/LB1

Departure

Time N/A
Airport London Heathrow Airport (EGLL)

Arrival

Time 2026-05-05 13:54
Airport Hamburg Helmut Schmidt Airport (EDDH)
Time Latitude Longitude Altitude Speed Heading
2026-05-05 13:24 52.97645 5.80945 35106 ft 406 kts 66°
2026-05-05 13:24 52.98770 5.85192 34985 ft 405 kts 71°
2026-05-05 13:25 52.99576 5.89628 34862 ft 404 kts 77°
2026-05-05 13:25 53.00129 5.94171 34741 ft 403 kts 80°
2026-05-05 13:25 53.01104 6.03271 34691 ft 403 kts 79°
2026-05-05 13:26 53.02129 6.12386 34689 ft 403 kts 79°
2026-05-05 13:26 53.03157 6.21549 34473 ft 407 kts 79°
2026-05-05 13:27 53.04175 6.30709 34432 ft 407 kts 79°
2026-05-05 13:27 53.05194 6.39941 34431 ft 407 kts 79°
2026-05-05 13:28 53.06199 6.49121 34430 ft 407 kts 79°
2026-05-05 13:28 53.07195 6.58281 34430 ft 407 kts 79°
2026-05-05 13:29 53.08191 6.67511 34430 ft 407 kts 79°
2026-05-05 13:29 53.09177 6.76724 34431 ft 407 kts 79°
2026-05-05 13:30 53.10151 6.85894 34430 ft 407 kts 79°
2026-05-05 13:30 53.11121 6.95101 34430 ft 407 kts 79°
2026-05-05 13:31 53.12087 7.04335 34431 ft 407 kts 79°
2026-05-05 13:31 53.13036 7.13484 34530 ft 407 kts 79°
2026-05-05 13:32 53.14361 7.22556 34547 ft 406 kts 71°
2026-05-05 13:32 53.15240 7.26977 34436 ft 401 kts 71°
2026-05-05 13:32 53.16125 7.31368 33749 ft 404 kts 71°
2026-05-05 13:33 53.16999 7.35783 33169 ft 402 kts 71°
2026-05-05 13:33 53.17852 7.40149 32637 ft 400 kts 71°
2026-05-05 13:33 53.18709 7.44558 32091 ft 399 kts 71°
2026-05-05 13:33 53.19555 7.48919 31548 ft 397 kts 71°
2026-05-05 13:34 53.20387 7.53213 31018 ft 396 kts 71°
2026-05-05 13:34 53.21237 7.57612 30478 ft 394 kts 71°
2026-05-05 13:34 53.22027 7.61705 29980 ft 393 kts 71°
2026-05-05 13:34 53.22899 7.66230 29434 ft 391 kts 71°
2026-05-05 13:35 53.23716 7.70479 28931 ft 389 kts 72°
2026-05-05 13:35 53.24542 7.74781 28421 ft 387 kts 72°
2026-05-05 13:35 53.25354 7.79026 27904 ft 386 kts 72°
2026-05-05 13:35 53.26162 7.83257 27392 ft 384 kts 72°
2026-05-05 13:36 53.26968 7.87482 26878 ft 382 kts 72°
2026-05-05 13:36 53.27766 7.91679 26368 ft 381 kts 72°
2026-05-05 13:36 53.28558 7.95857 25859 ft 379 kts 72°
2026-05-05 13:36 53.29247 7.99495 25412 ft 378 kts 72°
2026-05-05 13:37 53.30003 8.03497 24914 ft 376 kts 72°
2026-05-05 13:37 53.30779 8.07614 24448 ft 373 kts 72°
2026-05-05 13:37 53.31550 8.11713 23984 ft 370 kts 72°
2026-05-05 13:37 53.32324 8.15785 23511 ft 367 kts 71°
2026-05-05 13:38 53.33177 8.19755 23040 ft 364 kts 69°
2026-05-05 13:38 53.34037 8.23511 22591 ft 362 kts 69°
2026-05-05 13:38 53.34729 8.27490 22075 ft 359 kts 82°
2026-05-05 13:38 53.34971 8.31632 21582 ft 357 kts 84°
2026-05-05 13:39 53.35247 8.35722 20990 ft 358 kts 82°
2026-05-05 13:39 53.35614 8.39821 20512 ft 356 kts 81°
2026-05-05 13:39 53.36014 8.43865 20054 ft 353 kts 81°
2026-05-05 13:39 53.36420 8.47875 19589 ft 350 kts 81°
2026-05-05 13:40 53.36822 8.51857 19128 ft 347 kts 81°
2026-05-05 13:40 53.37220 8.55813 18670 ft 345 kts 81°
2026-05-05 13:40 53.37613 8.59735 18217 ft 342 kts 81°
2026-05-05 13:40 53.38001 8.63630 17767 ft 340 kts 81°
2026-05-05 13:41 53.38387 8.67507 17319 ft 338 kts 81°
2026-05-05 13:41 53.38767 8.71345 16875 ft 335 kts 81°
2026-05-05 13:41 53.39145 8.75173 16432 ft 333 kts 81°
2026-05-05 13:41 53.39517 8.78961 15992 ft 331 kts 81°
2026-05-05 13:42 53.39886 8.82726 15554 ft 328 kts 81°
2026-05-05 13:42 53.40254 8.86486 15114 ft 326 kts 81°
2026-05-05 13:42 53.40613 8.90183 14587 ft 323 kts 81°
2026-05-05 13:42 53.40971 8.93865 14021 ft 320 kts 81°
2026-05-05 13:43 53.41323 8.97510 13468 ft 317 kts 81°
2026-05-05 13:43 53.41673 9.01139 12916 ft 315 kts 81°
2026-05-05 13:43 53.42017 9.04722 12367 ft 312 kts 81°
2026-05-05 13:43 53.42357 9.08268 11879 ft 310 kts 81°
2026-05-05 13:44 53.42697 9.11826 11343 ft 307 kts 81°
2026-05-05 13:44 53.43029 9.15314 10735 ft 304 kts 81°
2026-05-05 13:44 53.43360 9.18807 10123 ft 305 kts 81°
2026-05-05 13:44 53.43684 9.22237 9894 ft 293 kts 81°
2026-05-05 13:45 53.43991 9.25485 9887 ft 274 kts 82°
2026-05-05 13:45 53.44277 9.28533 9723 ft 258 kts 82°
2026-05-05 13:45 53.44551 9.31458 9249 ft 253 kts 82°
2026-05-05 13:45 53.44819 9.34328 8723 ft 251 kts 82°
2026-05-05 13:46 53.45090 9.37226 8190 ft 249 kts 82°
2026-05-05 13:46 53.45354 9.40072 7667 ft 247 kts 82°
2026-05-05 13:46 53.45616 9.42897 7148 ft 245 kts 82°
2026-05-05 13:46 53.45875 9.45703 6632 ft 244 kts 82°
2026-05-05 13:47 53.46132 9.48490 6121 ft 242 kts 82°
2026-05-05 13:47 53.46387 9.51262 5670 ft 241 kts 82°
2026-05-05 13:47 53.46635 9.53967 5463 ft 228 kts 82°
2026-05-05 13:47 53.46869 9.56523 5169 ft 221 kts 82°
2026-05-05 13:48 53.47101 9.59068 4765 ft 219 kts 82°
2026-05-05 13:48 53.47330 9.61580 4352 ft 218 kts 82°
2026-05-05 13:48 53.47557 9.64075 3947 ft 216 kts 82°
2026-05-05 13:48 53.47833 9.66532 3594 ft 216 kts 73°
2026-05-05 13:49 53.48431 9.68838 3246 ft 216 kts 61°
2026-05-05 13:49 53.49243 9.70922 3036 ft 215 kts 55°
2026-05-05 13:49 53.50140 9.72874 3015 ft 205 kts 53°
2026-05-05 13:49 53.51029 9.74694 3010 ft 203 kts 52°
2026-05-05 13:50 53.51939 9.76524 3003 ft 203 kts 52°
2026-05-05 13:50 53.52834 9.78316 3028 ft 193 kts 52°
2026-05-05 13:50 53.53672 9.79991 2711 ft 185 kts 52°
2026-05-05 13:50 53.54476 9.81599 2407 ft 175 kts 52°
2026-05-05 13:51 53.55229 9.83108 2160 ft 162 kts 52°
2026-05-05 13:51 53.55915 9.84482 1931 ft 146 kts 52°
2026-05-05 13:51 53.56548 9.85754 1767 ft 140 kts 52°
2026-05-05 13:51 53.57173 9.87010 1573 ft 140 kts 52°
2026-05-05 13:52 53.57789 9.88248 1381 ft 138 kts 52°
2026-05-05 13:52 53.58400 9.89475 1189 ft 138 kts 52°
2026-05-05 13:52 53.59014 9.90709 1021 ft 139 kts 52°
2026-05-05 13:52 53.59634 9.91941 828 ft 138 kts 52°
2026-05-05 13:53 53.60237 9.93184 636 ft 138 kts 51°
2026-05-05 13:53 53.60847 9.94401 446 ft 136 kts 50°
2026-05-05 13:53 53.61456 9.95622 248 ft 134 kts 50°
2026-05-05 13:53 53.62040 9.96808 72 ft 130 kts 51°
2026-05-05 13:54 53.62558 9.97858 48 ft 100 kts 50°
2026-05-05 13:54 53.62917 9.98586 45 ft 62 kts 49°
2026-05-05 13:54 53.63136 9.99025 45 ft 40 kts 50°
2026-05-05 13:54 53.63251 9.99263 45 ft 20 kts 55°
2026-05-05 13:55 53.63290 9.99472 45 ft 18 kts 89°
2026-05-05 13:55 53.63279 9.99637 45 ft 13 kts 99°
2026-05-05 13:55 53.63281 9.99763 46 ft 10 kts 61°
2026-05-05 13:55 53.63314 9.99840 47 ft 7 kts 51°
2026-05-05 13:56 53.63340 9.99893 47 ft 5 kts 51°
2026-05-05 13:56 53.63359 9.99929 48 ft 4 kts 48°
2026-05-05 13:56 53.63390 9.99988 49 ft 9 kts 48°
2026-05-05 13:56 53.63426 10.00056 50 ft 6 kts 51°
2026-05-05 13:57 53.63430 10.00113 50 ft 4 kts 107°
2026-05-05 13:57 53.63423 10.00148 51 ft 4 kts 108°
2026-05-05 13:57 53.63416 10.00185 51 ft 2 kts 107°
2026-05-05 13:57 53.63414 10.00196 51 ft 1 kts 104°
2026-05-05 13:58 53.63410 10.00227 51 ft 4 kts 97°
2026-05-05 13:58 53.63409 10.00253 52 ft 1 kts 91°
2026-05-05 13:58 53.63409 10.00278 52 ft 3 kts 88°
2026-05-05 13:58 53.63410 10.00299 52 ft 1 kts 88°
2026-05-05 13:59 53.63410 10.00319 53 ft 0 kts 86°